Time,TemperatureF,DewpointF,PressureIn,WindDirection,WindDirectionDegrees,WindSpeedMPH,WindSpeedGustMPH,Humidity,HourlyPrecipIn,Conditions,Clouds,dailyrainin,SoftwareType,DateUTC
2013-01-22 00:02:00,31.0,-10.0,-100.00,North,-999,-999.0,-999.0,15,-99.99,,,-99.99,,2013-01-22 07:02:00,
2013-01-22 00:11:00,31.0,-13.0,-100.00,North,-999,-999.0,-999.0,13,-99.99,,,-99.99,,2013-01-22 07:11:00,
2013-01-22 00:22:00,31.0,-13.0,-100.00,North,-999,-999.0,-999.0,13,-99.99,,,-99.99,,2013-01-22 07:22:00,
2013-01-22 00:32:00,31.0,-13.0,-100.00,North,-999,-999.0,-999.0,13,-99.99,,,-99.99,,2013-01-22 07:32:00,
2013-01-22 00:42:00,31.0,-12.0,-100.00,North,-999,-999.0,-999.0,14,-99.99,,,-99.99,,2013-01-22 07:42:00,
2013-01-22 00:53:00,31.0,-12.0,-100.00,North,-999,-999.0,-999.0,14,-99.99,,,-99.99,,2013-01-22 07:53:00,
2013-01-22 01:02:00,32.0,-12.0,-100.00,North,-999,-999.0,-999.0,14,-99.99,,,-99.99,,2013-01-22 08:02:00,
2013-01-22 01:11:00,32.0,-11.0,-100.00,North,-999,-999.0,-999.0,14,-99.99,,,-99.99,,2013-01-22 08:11:00,
2013-01-22 01:22:00,32.0,-11.0,-100.00,North,-999,-999.0,-999.0,14,-99.99,,,-99.99,,2013-01-22 08:22:00,
2013-01-22 01:32:00,32.0,-11.0,-100.00,North,-999,-999.0,-999.0,14,-99.99,,,-99.99,,2013-01-22 08:32:00,
2013-01-22 01:42:00,31.0,-12.0,-100.00,North,-999,-999.0,-999.0,14,-99.99,,,-99.99,,2013-01-22 08:42:00,
2013-01-22 01:52:00,31.0,-12.0,-100.00,North,-999,-999.0,-999.0,14,-99.99,,,-99.99,,2013-01-22 08:52:00,
2013-01-22 02:02:00,32.0,-14.0,-100.00,North,-999,-999.0,-999.0,12,-99.99,,,-99.99,,2013-01-22 09:02:00,
2013-01-22 02:11:00,32.0,-13.0,-100.00,North,-999,-999.0,-999.0,12,-99.99,,,-99.99,,2013-01-22 09:11:00,
2013-01-22 02:22:00,32.0,-13.0,-100.00,North,-999,-999.0,-999.0,12,-99.99,,,-99.99,,2013-01-22 09:22:00,
2013-01-22 02:32:00,32.0,-13.0,-100.00,North,-999,-999.0,-999.0,12,-99.99,,,-99.99,,2013-01-22 09:32:00,
2013-01-22 02:42:00,32.0,-13.0,-100.00,North,-999,-999.0,-999.0,13,-99.99,,,-99.99,,2013-01-22 09:42:00,
2013-01-22 02:52:00,32.0,-13.0,-100.00,North,-999,-999.0,-999.0,13,-99.99,,,-99.99,,2013-01-22 09:52:00,
2013-01-22 03:02:00,32.0,-13.0,-100.00,North,-999,-999.0,-999.0,12,-99.99,,,-99.99,,2013-01-22 10:02:00,
2013-01-22 03:11:00,32.0,-10.0,-100.00,North,-999,-999.0,-999.0,15,-99.99,,,-99.99,,2013-01-22 10:11:00,
2013-01-22 03:22:00,32.0,-10.0,-100.00,North,-999,-999.0,-999.0,15,-99.99,,,-99.99,,2013-01-22 10:22:00,
2013-01-22 03:32:00,32.0,-10.0,-100.00,North,-999,-999.0,-999.0,15,-99.99,,,-99.99,,2013-01-22 10:32:00,
2013-01-22 03:42:00,33.0,-14.0,-100.00,North,-999,-999.0,-999.0,12,-99.99,,,-99.99,,2013-01-22 10:42:00,
2013-01-22 03:52:00,33.0,-13.0,-100.00,North,-999,-999.0,-999.0,12,-99.99,,,-99.99,,2013-01-22 10:52:00,
2013-01-22 04:02:00,33.0,-13.0,-100.00,North,-999,-999.0,-999.0,12,-99.99,,,-99.99,,2013-01-22 11:02:00,
2013-01-22 04:12:00,32.0,-12.0,-100.00,North,-999,-999.0,-999.0,13,-99.99,,,-99.99,,2013-01-22 11:12:00,
2013-01-22 04:22:00,32.0,-12.0,-100.00,North,-999,-999.0,-999.0,13,-99.99,,,-99.99,,2013-01-22 11:22:00,
2013-01-22 04:32:00,32.0,-12.0,-100.00,North,-999,-999.0,-999.0,13,-99.99,,,-99.99,,2013-01-22 11:32:00,
2013-01-22 04:42:00,32.0,-12.0,-100.00,North,-999,-999.0,-999.0,13,-99.99,,,-99.99,,2013-01-22 11:42:00,
2013-01-22 04:53:00,32.0,-12.0,-100.00,North,-999,-999.0,-999.0,13,-99.99,,,-99.99,,2013-01-22 11:53:00,
2013-01-22 05:03:00,32.0,-13.0,-100.00,North,-999,-999.0,-999.0,13,-99.99,,,-99.99,,2013-01-22 12:03:00,
2013-01-22 05:12:00,32.0,-12.0,-100.00,North,-999,-999.0,-999.0,13,-99.99,,,-99.99,,2013-01-22 12:12:00,
2013-01-22 05:22:00,32.0,-12.0,-100.00,North,-999,-999.0,-999.0,13,-99.99,,,-99.99,,2013-01-22 12:22:00,
2013-01-22 05:32:00,32.0,-12.0,-100.00,North,-999,-999.0,-999.0,13,-99.99,,,-99.99,,2013-01-22 12:32:00,
2013-01-22 05:42:00,32.0,-12.0,-100.00,North,-999,-999.0,-999.0,14,-99.99,,,-99.99,,2013-01-22 12:42:00,
2013-01-22 05:53:00,32.0,-12.0,-100.00,North,-999,-999.0,-999.0,14,-99.99,,,-99.99,,2013-01-22 12:53:00,
2013-01-22 06:03:00,33.0,-14.0,-100.00,North,-999,-999.0,-999.0,12,-99.99,,,-99.99,,2013-01-22 13:03:00,
2013-01-22 06:13:00,32.0,-14.0,-100.00,North,-999,-999.0,-999.0,12,-99.99,,,-99.99,,2013-01-22 13:13:00,
2013-01-22 06:23:00,32.0,-14.0,-100.00,North,-999,-999.0,-999.0,12,-99.99,,,-99.99,,2013-01-22 13:23:00,
2013-01-22 06:33:00,32.0,-14.0,-100.00,North,-999,-999.0,-999.0,12,-99.99,,,-99.99,,2013-01-22 13:33:00,
2013-01-22 06:42:00,33.0,-17.0,-100.00,North,-999,-999.0,-999.0,10,-99.99,,,-99.99,,2013-01-22 13:42:00,
2013-01-22 06:53:00,33.0,-19.0,-100.00,North,-999,-999.0,-999.0,9,-99.99,,,-99.99,,2013-01-22 13:53:00,
2013-01-22 07:02:00,33.0,-19.0,-100.00,North,-999,-999.0,-999.0,9,-99.99,,,-99.99,,2013-01-22 14:02:00,
2013-01-22 07:12:00,32.0,-19.0,-100.00,North,-999,-999.0,-999.0,9,-99.99,,,-99.99,,2013-01-22 14:12:00,
2013-01-22 07:22:00,32.0,-19.0,-100.00,North,-999,-999.0,-999.0,9,-99.99,,,-99.99,,2013-01-22 14:22:00,
2013-01-22 07:33:00,32.0,-19.0,-100.00,North,-999,-999.0,-999.0,9,-99.99,,,-99.99,,2013-01-22 14:33:00,
2013-01-22 07:43:00,35.0,-20.0,-100.00,North,-999,-999.0,-999.0,8,-99.99,,,-99.99,,2013-01-22 14:43:00,
2013-01-22 07:53:00,35.0,-20.0,-100.00,North,-999,-999.0,-999.0,8,-99.99,,,-99.99,,2013-01-22 14:53:00,
2013-01-22 08:03:00,35.0,-21.0,-100.00,North,-999,-999.0,-999.0,7,-99.99,,,-99.99,,2013-01-22 15:03:00,
2013-01-22 08:12:00,34.0,-20.0,-100.00,North,-999,-999.0,-999.0,8,-99.99,,,-99.99,,2013-01-22 15:12:00,
2013-01-22 08:23:00,34.0,-20.0,-100.00,North,-999,-999.0,-999.0,8,-99.99,,,-99.99,,2013-01-22 15:23:00,
2013-01-22 08:33:00,34.0,-20.0,-100.00,North,-999,-999.0,-999.0,8,-99.99,,,-99.99,,2013-01-22 15:33:00,
2013-01-22 08:43:00,34.0,-18.0,-100.00,North,-999,-999.0,-999.0,9,-99.99,,,-99.99,,2013-01-22 15:43:00,
2013-01-22 08:53:00,34.0,-18.0,-100.00,North,-999,-999.0,-999.0,9,-99.99,,,-99.99,,2013-01-22 15:53:00,
2013-01-22 09:03:00,34.0,-22.0,-100.00,North,-999,-999.0,-999.0,7,-99.99,,,-99.99,,2013-01-22 16:03:00,
2013-01-22 09:12:00,35.0,-21.0,-100.00,North,-999,-999.0,-999.0,7,-99.99,,,-99.99,,2013-01-22 16:12:00,
2013-01-22 09:23:00,35.0,-21.0,-100.00,North,-999,-999.0,-999.0,7,-99.99,,,-99.99,,2013-01-22 16:23:00,
2013-01-22 09:33:00,35.0,-21.0,-100.00,North,-999,-999.0,-999.0,7,-99.99,,,-99.99,,2013-01-22 16:33:00,
2013-01-22 09:43:00,34.0,-20.0,-100.00,North,-999,-999.0,-999.0,8,-99.99,,,-99.99,,2013-01-22 16:43:00,
2013-01-22 09:54:00,34.0,-20.0,-100.00,North,-999,-999.0,-999.0,8,-99.99,,,-99.99,,2013-01-22 16:54:00,
2013-01-22 10:03:00,34.0,-20.0,-100.00,North,-999,-999.0,-999.0,8,-99.99,,,-99.99,,2013-01-22 17:03:00,
2013-01-22 10:12:00,34.0,-19.0,-100.00,North,-999,-999.0,-999.0,8,-99.99,,,-99.99,,2013-01-22 17:12:00,
2013-01-22 10:23:00,34.0,-19.0,-100.00,North,-999,-999.0,-999.0,8,-99.99,,,-99.99,,2013-01-22 17:23:00,
2013-01-22 10:33:00,34.0,-19.0,-100.00,North,-999,-999.0,-999.0,8,-99.99,,,-99.99,,2013-01-22 17:33:00,
2013-01-22 10:43:00,35.0,-17.0,-100.00,North,-999,-999.0,-999.0,9,-99.99,,,-99.99,,2013-01-22 17:43:00,
2013-01-22 10:53:00,35.0,-17.0,-100.00,North,-999,-999.0,-999.0,9,-99.99,,,-99.99,,2013-01-22 17:53:00,
2013-01-22 11:03:00,37.0,-16.0,-100.00,North,-999,-999.0,-999.0,9,-99.99,,,-99.99,,2013-01-22 18:03:00,
2013-01-22 11:12:00,40.0,-19.0,-100.00,North,-999,-999.0,-999.0,7,-99.99,,,-99.99,,2013-01-22 18:12:00,
2013-01-22 11:23:00,40.0,-19.0,-100.00,North,-999,-999.0,-999.0,7,-99.99,,,-99.99,,2013-01-22 18:23:00,
2013-01-22 11:33:00,40.0,-19.0,-100.00,North,-999,-999.0,-999.0,7,-99.99,,,-99.99,,2013-01-22 18:33:00,
2013-01-22 11:42:00,41.0,-18.0,-100.00,North,-999,-999.0,-999.0,7,-99.99,,,-99.99,,2013-01-22 18:42:00,
2013-01-22 11:54:00,41.0,-18.0,-100.00,North,-999,-999.0,-999.0,7,-99.99,,,-99.99,,2013-01-22 18:54:00,
2013-01-22 12:03:00,41.0,-18.0,-100.00,North,-999,-999.0,-999.0,7,-99.99,,,-99.99,,2013-01-22 19:03:00,
2013-01-22 12:13:00,43.0,-12.0,-100.00,North,-999,-999.0,-999.0,9,-99.99,,,-99.99,,2013-01-22 19:13:00,
2013-01-22 12:23:00,43.0,-12.0,-100.00,North,-999,-999.0,-999.0,9,-99.99,,,-99.99,,2013-01-22 19:23:00,
2013-01-22 12:33:00,43.0,-12.0,-100.00,North,-999,-999.0,-999.0,9,-99.99,,,-99.99,,2013-01-22 19:33:00,
2013-01-22 12:43:00,46.0,-9.0,-100.00,North,-999,-999.0,-999.0,9,-99.99,,,-99.99,,2013-01-22 19:43:00,
2013-01-22 12:54:00,46.0,-9.0,-100.00,North,-999,-999.0,-999.0,9,-99.99,,,-99.99,,2013-01-22 19:54:00,
2013-01-22 13:03:00,47.0,-13.0,-100.00,North,-999,-999.0,-999.0,7,-99.99,,,-99.99,,2013-01-22 20:03:00,
2013-01-22 13:12:00,48.0,-14.0,-100.00,North,-999,-999.0,-999.0,6,-99.99,,,-99.99,,2013-01-22 20:12:00,
2013-01-22 13:23:00,48.0,-14.0,-100.00,North,-999,-999.0,-999.0,6,-99.99,,,-99.99,,2013-01-22 20:23:00,
2013-01-22 13:32:00,48.0,-14.0,-100.00,North,-999,-999.0,-999.0,6,-99.99,,,-99.99,,2013-01-22 20:32:00,
2013-01-22 13:42:00,45.0,-10.0,-100.00,North,-999,-999.0,-999.0,9,-99.99,,,-99.99,,2013-01-22 20:42:00,
2013-01-22 13:53:00,45.0,-10.0,-100.00,North,-999,-999.0,-999.0,9,-99.99,,,-99.99,,2013-01-22 20:53:00,
2013-01-22 14:03:00,45.0,-10.0,-100.00,North,-999,-999.0,-999.0,9,-99.99,,,-99.99,,2013-01-22 21:03:00,
2013-01-22 14:13:00,45.0,-11.0,-100.00,North,-999,-999.0,-999.0,8,-99.99,,,-99.99,,2013-01-22 21:13:00,
2013-01-22 14:22:00,45.0,-11.0,-100.00,North,-999,-999.0,-999.0,8,-99.99,,,-99.99,,2013-01-22 21:22:00,
2013-01-22 14:33:00,45.0,-11.0,-100.00,North,-999,-999.0,-999.0,8,-99.99,,,-99.99,,2013-01-22 21:33:00,
2013-01-22 14:43:00,44.0,-10.0,-100.00,North,-999,-999.0,-999.0,9,-99.99,,,-99.99,,2013-01-22 21:43:00,
2013-01-22 14:53:00,44.0,-10.0,-100.00,North,-999,-999.0,-999.0,9,-99.99,,,-99.99,,2013-01-22 21:53:00,
2013-01-22 15:02:00,44.0,-9.0,-100.00,North,-999,-999.0,-999.0,9,-99.99,,,-99.99,,2013-01-22 22:02:00,
2013-01-22 15:12:00,44.0,-11.0,-100.00,North,-999,-999.0,-999.0,9,-99.99,,,-99.99,,2013-01-22 22:12:00,
2013-01-22 15:22:00,44.0,-11.0,-100.00,North,-999,-999.0,-999.0,9,-99.99,,,-99.99,,2013-01-22 22:22:00,
2013-01-22 15:32:00,44.0,-11.0,-100.00,North,-999,-999.0,-999.0,9,-99.99,,,-99.99,,2013-01-22 22:32:00,
2013-01-22 15:43:00,46.0,-4.0,-100.00,North,-999,-999.0,-999.0,11,-99.99,,,-99.99,,2013-01-22 22:43:00,
2013-01-22 15:53:00,46.0,-4.0,-100.00,North,-999,-999.0,-999.0,11,-99.99,,,-99.99,,2013-01-22 22:53:00,
2013-01-22 16:02:00,45.0,-5.0,-100.00,North,-999,-999.0,-999.0,11,-99.99,,,-99.99,,2013-01-22 23:02:00,
2013-01-22 16:12:00,45.0,-4.0,-100.00,North,-999,-999.0,-999.0,12,-99.99,,,-99.99,,2013-01-22 23:12:00,
2013-01-22 16:23:00,45.0,-4.0,-100.00,North,-999,-999.0,-999.0,12,-99.99,,,-99.99,,2013-01-22 23:23:00,
2013-01-22 16:32:00,45.0,-4.0,-100.00,North,-999,-999.0,-999.0,12,-99.99,,,-99.99,,2013-01-22 23:32:00,
2013-01-22 16:42:00,42.0,-7.0,-100.00,North,-999,-999.0,-999.0,11,-99.99,,,-99.99,,2013-01-22 23:42:00,
2013-01-22 16:53:00,42.0,-7.0,-100.00,North,-999,-999.0,-999.0,11,-99.99,,,-99.99,,2013-01-22 23:53:00,
2013-01-22 17:02:00,42.0,-7.0,-100.00,North,-999,-999.0,-999.0,11,-99.99,,,-99.99,,2013-01-23 00:02:00,
2013-01-22 17:12:00,40.0,-7.0,-100.00,North,-999,-999.0,-999.0,12,-99.99,,,-99.99,,2013-01-23 00:12:00,
2013-01-22 17:22:00,40.0,-7.0,-100.00,North,-999,-999.0,-999.0,12,-99.99,,,-99.99,,2013-01-23 00:22:00,
2013-01-22 17:33:00,40.0,-7.0,-100.00,North,-999,-999.0,-999.0,12,-99.99,,,-99.99,,2013-01-23 00:33:00,
2013-01-22 17:42:00,39.0,-11.0,-100.00,North,-999,-999.0,-999.0,11,-99.99,,,-99.99,,2013-01-23 00:42:00,
2013-01-22 17:52:00,39.0,-11.0,-100.00,North,-999,-999.0,-999.0,11,-99.99,,,-99.99,,2013-01-23 00:52:00,
2013-01-22 18:02:00,38.0,-13.0,-100.00,North,-999,-999.0,-999.0,10,-99.99,,,-99.99,,2013-01-23 01:02:00,
2013-01-22 18:13:00,38.0,-15.0,-100.00,North,-999,-999.0,-999.0,9,-99.99,,,-99.99,,2013-01-23 01:13:00,
2013-01-22 18:22:00,38.0,-15.0,-100.00,North,-999,-999.0,-999.0,9,-99.99,,,-99.99,,2013-01-23 01:22:00,
2013-01-22 18:32:00,38.0,-15.0,-100.00,North,-999,-999.0,-999.0,9,-99.99,,,-99.99,,2013-01-23 01:32:00,
2013-01-22 18:42:00,36.0,-17.0,-100.00,North,-999,-999.0,-999.0,9,-99.99,,,-99.99,,2013-01-23 01:42:00,
2013-01-22 18:53:00,36.0,-17.0,-100.00,North,-999,-999.0,-999.0,9,-99.99,,,-99.99,,2013-01-23 01:53:00,
2013-01-22 19:03:00,35.0,-19.0,-100.00,North,-999,-999.0,-999.0,8,-99.99,,,-99.99,,2013-01-23 02:03:00,
2013-01-22 19:12:00,36.0,-20.0,-100.00,North,-999,-999.0,-999.0,7,-99.99,,,-99.99,,2013-01-23 02:12:00,
2013-01-22 19:22:00,36.0,-20.0,-100.00,North,-999,-999.0,-999.0,7,-99.99,,,-99.99,,2013-01-23 02:22:00,
2013-01-22 19:32:00,36.0,-20.0,-100.00,North,-999,-999.0,-999.0,7,-99.99,,,-99.99,,2013-01-23 02:32:00,
2013-01-22 19:42:00,36.0,-20.0,-100.00,North,-999,-999.0,-999.0,7,-99.99,,,-99.99,,2013-01-23 02:42:00,
2013-01-22 19:53:00,36.0,-20.0,-100.00,North,-999,-999.0,-999.0,7,-99.99,,,-99.99,,2013-01-23 02:53:00,
2013-01-22 20:03:00,37.0,-15.0,-100.00,North,-999,-999.0,-999.0,9,-99.99,,,-99.99,,2013-01-23 03:03:00,
2013-01-22 20:12:00,38.0,-9.0,-100.00,North,-999,-999.0,-999.0,12,-99.99,,,-99.99,,2013-01-23 03:12:00,
2013-01-22 20:22:00,38.0,-9.0,-100.00,North,-999,-999.0,-999.0,12,-99.99,,,-99.99,,2013-01-23 03:22:00,
2013-01-22 20:32:00,38.0,-9.0,-100.00,North,-999,-999.0,-999.0,12,-99.99,,,-99.99,,2013-01-23 03:32:00,
2013-01-22 20:42:00,38.0,-5.0,-100.00,North,-999,-999.0,-999.0,15,-99.99,,,-99.99,,2013-01-23 03:42:00,
2013-01-22 20:53:00,38.0,-5.0,-100.00,North,-999,-999.0,-999.0,15,-99.99,,,-99.99,,2013-01-23 03:53:00,
2013-01-22 21:03:00,39.0,-4.0,-100.00,North,-999,-999.0,-999.0,15,-99.99,,,-99.99,,2013-01-23 04:03:00,
2013-01-22 21:12:00,38.0,-4.0,-100.00,North,-999,-999.0,-999.0,15,-99.99,,,-99.99,,2013-01-23 04:12:00,
2013-01-22 21:22:00,38.0,-4.0,-100.00,North,-999,-999.0,-999.0,15,-99.99,,,-99.99,,2013-01-23 04:22:00,
2013-01-22 21:32:00,38.0,-4.0,-100.00,North,-999,-999.0,-999.0,15,-99.99,,,-99.99,,2013-01-23 04:32:00,
2013-01-22 21:43:00,38.0,-4.0,-100.00,North,-999,-999.0,-999.0,15,-99.99,,,-99.99,,2013-01-23 04:43:00,
2013-01-22 21:53:00,38.0,-4.0,-100.00,North,-999,-999.0,-999.0,15,-99.99,,,-99.99,,2013-01-23 04:53:00,
2013-01-22 22:03:00,38.0,-5.0,-100.00,North,-999,-999.0,-999.0,15,-99.99,,,-99.99,,2013-01-23 05:03:00,
2013-01-22 22:12:00,38.0,-5.0,-100.00,North,-999,-999.0,-999.0,15,-99.99,,,-99.99,,2013-01-23 05:12:00,
2013-01-22 22:22:00,38.0,-5.0,-100.00,North,-999,-999.0,-999.0,15,-99.99,,,-99.99,,2013-01-23 05:22:00,
2013-01-22 22:33:00,38.0,-5.0,-100.00,North,-999,-999.0,-999.0,15,-99.99,,,-99.99,,2013-01-23 05:33:00,
2013-01-22 22:43:00,39.0,-5.0,-100.00,North,-999,-999.0,-999.0,14,-99.99,,,-99.99,,2013-01-23 05:43:00,
2013-01-22 22:53:00,39.0,-5.0,-100.00,North,-999,-999.0,-999.0,14,-99.99,,,-99.99,,2013-01-23 05:53:00,
2013-01-22 23:02:00,39.0,-5.0,-100.00,North,-999,-999.0,-999.0,14,-99.99,,,-99.99,,2013-01-23 06:02:00,
2013-01-22 23:12:00,38.0,-4.0,-100.00,North,-999,-999.0,-999.0,15,-99.99,,,-99.99,,2013-01-23 06:12:00,
2013-01-22 23:22:00,38.0,-4.0,-100.00,North,-999,-999.0,-999.0,15,-99.99,,,-99.99,,2013-01-23 06:22:00,
2013-01-22 23:32:00,38.0,-4.0,-100.00,North,-999,-999.0,-999.0,15,-99.99,,,-99.99,,2013-01-23 06:32:00,
2013-01-22 23:42:00,38.0,-4.0,-100.00,North,-999,-999.0,-999.0,15,-99.99,,,-99.99,,2013-01-23 06:42:00,
2013-01-22 23:53:00,38.0,-4.0,-100.00,North,-999,-999.0,-999.0,15,-99.99,,,-99.99,,2013-01-23 06:53:00,